sat.trackr.live / text

‹ back to catalog

IRIDIUM 152

NORAD 43479 · 2018-047D

PAYLOAD ACTIVE UNKNOWN

§ Identity

Operator
Country
US
Launch date
2018-05-22
Launch site
AFWTR
Launch vehicle
Mass (kg)
RCS (m²)

Purposes: comms

External: N2YO · Heavens-Above · Gunter

§ Orbital elements

Epoch: 2026-09-19T18:39:54.243360Z

Period
100.40 min
Inclination
86.3945°
Eccentricity
0.0002180
Mean motion
14.34218428 rev/d
Perigee alt
776.1 km
Apogee alt
779.2 km
Semi-major
7,155.8 km
B*
4.3851e-5
RAAN
48.7477°
Arg perigee
92.3894°
Mean anomaly
267.7551°
Rev number
43,604

§ Raw data

IRIDIUM 1521 43479U 18047D   26262.77771115  .00000143  00000+0  43851-4 0  99932 43479  86.3945  48.7477 0002180  92.3894 267.7551 14.34218428436044

JSON: /api/v1/satellites/43479 · /tle

For live sub-satellite position, see the globe view (requires WebGL).

§ Visibility from observer

Set your observer location to see the next 7 days of passes ≥ 10°. The values pass through the URL so the page stays shareable.

No JS? Fill the form by hand. The geolocation button needs JavaScript.